This is the latest recevied weather packets stored in our database for station/object KD9DOE. If no packets are shown the sender has not sent any weather packets the latest 1 day(s).
| Time | Temp. | Humidity | Pressure | Rain* | Wind** | Luminosity | Snow |
|---|---|---|---|---|---|---|---|
| 1778016428 | 13.89° C | 27% | 1008.3 hPa | 0 mm | 1.34 m/s, 274° | 170 W/m² | - |
| 1778016126 | 13.89° C | 27% | 1008.4 hPa | 0 mm | 0.45 m/s, 4° | 128 W/m² | - |
| 1778015822 | 13.89° C | 26% | 1008.4 hPa | 0 mm | 1.79 m/s, 3° | 288 W/m² | - |
| 1778015520 | 15° C | 25% | 1008.4 hPa | 0 mm | 2.24 m/s, 329° | 218 W/m² | - |
| 1778015216 | 15° C | 26% | 1008.4 hPa | 0 mm | 0.45 m/s, 257° | 141 W/m² | - |
| 1778014913 | 14.44° C | 27% | 1008.4 hPa | 0 mm | 0.45 m/s, 277° | 153 W/m² | - |
| 1778014610 | 15° C | 25% | 1008.5 hPa | 0 mm | 1.34 m/s, 338° | 195 W/m² | - |
| 1778014308 | 14.44° C | 26% | 1008.4 hPa | 0 mm | 1.79 m/s, 305° | 115 W/m² | - |
| 1778014004 | 15° C | 25% | 1008.7 hPa | 0 mm | 0.89 m/s, 281° | 352 W/m² | - |
| 1778013703 | 15° C | 26% | 1008.6 hPa | 0 mm | 0.45 m/s, 340° | 118 W/m² | - |
| 1778013400 | 13.89° C | 27% | 1008.4 hPa | 0 mm | 0.89 m/s, 124° | 111 W/m² | - |
| 1778013096 | 14.44° C | 25% | 1008.8 hPa | 0 mm | 2.68 m/s, 292° | 155 W/m² | - |
| 1778012792 | 15.56° C | 25% | 1008.7 hPa | 0 mm | 0.89 m/s, 272° | 143 W/m² | - |
| 1778012488 | 15° C | 26% | 1008.5 hPa | 0 mm | 0.45 m/s, 339° | 408 W/m² | - |
| 1778012185 | 15.56° C | 24% | 1008.6 hPa | 0 mm | 1.34 m/s, 326° | 590 W/m² | - |
| 1778011883 | 15.56° C | 25% | 1008.5 hPa | 0 mm | 0.89 m/s, 329° | 693 W/m² | - |
| 1778011581 | 15° C | 25% | 1008.7 hPa | 0 mm | 0 m/s | 686 W/m² | - |
| 1778011277 | 15.56° C | 24% | 1009 hPa | 0 mm | 2.24 m/s, 279° | 658 W/m² | - |
| 1778010974 | 15.56° C | 25% | 1008.8 hPa | 0 mm | 0 m/s | 749 W/m² | - |
| 1778010671 | 15° C | 25% | 1008.8 hPa | 0 mm | 0.89 m/s, 7° | 788 W/m² | - |
| 1778010368 | 15° C | 25% | 1009.1 hPa | 0 mm | 0.89 m/s, 337° | 677 W/m² | - |
| 1778010064 | 15° C | 24% | 1008.9 hPa | 0 mm | 1.79 m/s, 304° | 736 W/m² | - |
| 1778009761 | 15° C | 25% | 1009.1 hPa | 0 mm | 0.89 m/s, 328° | 770 W/m² | - |
| 1778009458 | 15° C | 24% | 1009.1 hPa | 0 mm | 0 m/s | 776 W/m² | - |
| 1778009157 | 15° C | 25% | 1009.2 hPa | 0 mm | 0.89 m/s, 282° | 775 W/m² | - |
* Rain latest hour (hover to see other rain measurements)
** Current wind speed in m/s (hover to see current wind gust speed)